Location: Newark
(30.1000°N, 109.4667°E)
Time: 23:56:24
(UTC+00:00)

A-11 Canister half - All Passes

Search period start: 23 February 2020 00:00
Search period end: 04 March 2020 00:00
Orbit: 1517 x 1683 km, 47.2° (Epoch: 23 February)

Date Brightness Start Highest point End Pass type
(mag) Time Alt. Az. Time Alt. Az. Time Alt. Az.
23 Feb - 05:23:41 10° S 05:31:20 25° SE 05:38:54 10° ENE daylight
23 Feb - 07:25:24 10° SW 07:35:35 90° NW 07:45:32 10° NE daylight
23 Feb - 09:32:32 10° W 09:41:35 37° NNW 09:50:27 10° NE daylight
23 Feb - 11:41:08 10° NW 11:49:17 28° N 11:57:11 10° ENE visible
23 Feb - 13:47:07 10° NW 13:56:24 50° NNE 14:05:22 10° ESE visible
23 Feb - 15:52:17 10° WNW 16:01:26 56° SW 16:10:23 10° SSE visible
24 Feb - 05:01:11 10° S 05:08:29 23° SE 05:15:41 10° ENE daylight
24 Feb - 07:02:27 10° SW 07:12:38 86° SE 07:22:37 10° NE daylight
24 Feb - 09:09:22 10° W 09:18:33 39° NNW 09:27:30 10° NE daylight
24 Feb - 11:18:02 10° NW 11:26:12 28° N 11:34:07 10° ENE visible
24 Feb - 13:24:11 10° NW 13:33:25 47° NNE 13:42:20 10° E visible
24 Feb - 15:29:18 10° WNW 15:38:34 60° SW 15:47:36 10° SSE visible
24 Feb - 17:40:02 10° WSW 17:42:08 11° WSW 17:44:13 10° SW night (unlit)
25 Feb - 04:38:44 10° SSE 04:45:36 21° SE 04:52:25 10° E daylight
25 Feb - 06:39:32 10° SW 06:49:42 81° SE 06:59:41 10° NE daylight
25 Feb - 08:46:13 10° W 08:55:30 40° NNW 09:04:35 10° NE daylight
25 Feb - 10:54:56 10° NW 11:03:06 28° N 11:11:02 10° ENE visible
25 Feb - 13:01:14 10° NW 13:10:25 45° NNE 13:19:18 10° E visible
25 Feb - 15:06:19 10° NW 15:15:42 65° SW 15:24:49 10° SSE visible
25 Feb - 17:15:50 10° W 17:19:18 13° WSW 17:22:47 10° SW night (unlit)
26 Feb - 04:16:21 10° SSE 04:22:44 19° SE 04:29:04 10° E daylight
26 Feb - 06:16:38 10° SW 06:26:46 77° SE 06:36:44 10° NE daylight
26 Feb - 08:23:04 10° W 08:32:28 42° NNW 08:41:40 10° NE daylight
26 Feb - 10:31:49 10° NW 10:40:00 28° N 10:47:58 10° ENE daylight
26 Feb - 12:38:16 10° NW 12:47:25 43° NNE 12:56:15 10° E visible
26 Feb - 14:43:21 10° NW 14:52:49 69° SW 15:02:00 10° SE visible
26 Feb - 16:52:05 10° W 16:56:29 14° WSW 17:00:53 10° SSW night (unlit)
27 Feb - 03:54:03 10° SSE 03:59:52 17° ESE 04:05:39 10° E daylight
27 Feb - 05:53:44 10° SW 06:03:50 72° SE 06:13:47 10° NE daylight
27 Feb - 07:59:55 10° W 08:09:26 44° NNW 08:18:44 10° NE daylight
27 Feb - 10:08:41 10° WNW 10:16:55 28° N 10:24:55 10° NE daylight
27 Feb - 12:15:19 10° NW 12:24:25 42° NNE 12:33:11 10° E visible
27 Feb - 14:20:23 10° NW 14:29:56 74° SW 14:39:10 10° SE visible
27 Feb - 16:28:32 10° W 16:33:40 16° WSW 16:38:45 10° SSW visible
28 Feb - 03:31:52 10° SSE 03:37:01 15° ESE 03:42:08 10° E daylight
28 Feb - 05:30:52 10° SW 05:40:54 68° SE 05:50:50 10° NE daylight
28 Feb - 07:36:49 10° W 07:46:24 46° NNW 07:55:49 10° NE daylight
28 Feb - 09:45:33 10° WNW 09:53:49 28° N 10:01:52 10° NE daylight
28 Feb - 11:52:20 10° NW 12:01:24 40° NNE 12:10:07 10° E visible
28 Feb - 13:57:25 10° NW 14:07:02 79° SW 14:16:20 10° SE visible
28 Feb - 16:05:06 10° W 16:10:50 18° WSW 16:16:32 10° SSW visible
29 Feb - 03:09:51 10° SSE 03:14:09 13° ESE 03:18:27 10° E daylight
29 Feb - 05:08:00 10° SSW 05:17:59 64° SE 05:27:51 10° NE daylight
29 Feb - 07:13:41 10° W 07:23:22 48° NNW 07:32:54 10° NE daylight
29 Feb - 09:22:24 10° WNW 09:30:43 28° N 09:38:50 10° NE daylight
29 Feb - 11:29:22 10° NW 11:38:22 39° NNE 11:47:03 10° E visible
29 Feb - 13:34:27 10° NW 13:44:08 84° SW 13:53:29 10° SE visible
29 Feb - 15:41:45 10° W 15:48:01 20° SW 15:54:12 10° SSW visible
01 Mar - 02:48:07 10° SE 02:51:18 12° ESE 02:54:29 10° ESE daylight
01 Mar - 04:45:10 10° SSW 04:55:04 60° SE 05:04:53 10° ENE daylight
01 Mar - 06:50:35 10° WSW 07:00:21 50° NNW 07:09:58 10° NE daylight
01 Mar - 08:59:15 10° WNW 09:07:37 29° N 09:15:47 10° NE daylight
01 Mar - 11:06:23 10° NW 11:15:20 37° NNE 11:23:58 10° E visible
01 Mar - 13:11:29 10° NW 13:21:14 88° SW 13:30:37 10° SE visible
01 Mar - 15:18:28 10° WNW 15:25:11 22° SW 15:31:49 10° S visible
02 Mar - 02:27:20 10° SE 02:28:27 10° ESE 02:29:33 10° ESE daylight
02 Mar - 04:22:21 10° SSW 04:32:09 56° SE 04:41:53 10° ENE daylight
02 Mar - 06:27:29 10° WSW 06:37:20 53° NNW 06:47:03 10° NE daylight
02 Mar - 08:36:05 10° WNW 08:44:32 29° N 08:52:45 10° NE daylight
02 Mar - 10:43:23 10° NW 10:52:17 36° NNE 11:00:53 10° E daylight
02 Mar - 12:48:33 10° NW 12:58:19 87° NE 13:07:44 10° SE visible
02 Mar - 14:55:14 10° WNW 15:02:22 24° SW 15:09:22 10° S visible
03 Mar - 03:59:34 10° SSW 04:09:14 52° SE 04:18:53 10° ENE daylight
03 Mar - 06:04:25 10° WSW 06:14:19 55° NNW 06:24:07 10° NE daylight
03 Mar - 08:12:55 10° WNW 08:21:26 30° N 08:29:44 10° NE daylight
03 Mar - 10:20:23 10° NW 10:29:14 35° NNE 10:37:48 10° E daylight
03 Mar - 12:25:35 10° NW 12:35:24 83° NE 12:44:50 10° SE visible
03 Mar - 14:32:02 10° WNW 14:39:31 27° SW 14:46:52 10° S visible
